Wind_Speed
25 26 27 27 28 28 26 23 23 23 24 24 23 22 22 21 20 19 17 17 17 17 16 15 14 14 14 14 14 13 13 13 12 12 12 11 11 10 9 8 8 8 7 7 6 6 5 4 4
27 28 28 29 30 29 27 26 26 25 26 26 26 25 24 23 22 20 19 18 18 18 18 17 16 16 16 16 15 15 15 14 14 13 13 13 12 11 10 10 9 9 8 8 7 7 6 5 5
29 30 31 31 31 30 29 27 27 28 28 28 28 28 27 25 24 22 21 20 20 19 20 19 18 18 17 17 17 17 16 16 15 15 14 14 13 12 11 11 10 10 9 9 8 7 7 6 6
31 32 33 33 32 31 31 30 30 31 31 31 31 30 29 27 26 25 23 23 22 21 21 21 20 19 19 19 19 19 18 17 17 16 15 15 14 14 13 12 11 11 10 10 9 9 8 8 7
33 33 34 34 33 33 33 33 33 33 33 33 33 32 31 30 29 27 26 25 24 24 23 23 22 22 21 20 20 20 20 19 19 17 17 16 15 15 14 13 13 12 12 11 10 10 9 8 8
34 35 36 35 34 34 35 36 36 35 35 35 35 34 33 32 31 30 29 28 27 26 25 25 24 24 23 22 22 22 21 21 21 20 19 17 17 16 16 15 14 13 12 12 11 11 10 10 9
36 37 38 37 36 37 36 37 38 38 37 37 37 37 35 34 33 32 31 31 30 28 27 27 26 26 25 24 24 23 23 23 22 22 21 20 18 17 17 16 15 15 14 13 13 12 11 10 10
38 39 39 39 39 39 38 39 40 40 40 40 39 39 38 37 36 35 34 33 32 31 30 29 28 28 27 27 26 25 24 24 23 23 22 22 21 19 18 17 16 16 16 15 14 13 13 12 11
39 40 40 39 40 40 40 41 41 42 42 42 42 41 40 39 38 37 37 35 34 33 32 31 30 30 29 28 28 27 26 25 25 24 24 23 22 21 20 19 18 17 17 16 16 15 14 13 12
39 40 40 40 41 41 42 43 43 44 44 44 44 43 43 42 41 40 39 37 36 35 34 34 32 32 31 30 29 29 28 27 27 26 25 25 24 23 22 21 20 19 18 18 17 16 15 15 14
39 39 40 41 42 43 43 44 45 46 46 45 45 45 45 45 43 42 41 40 38 38 37 36 35 34 33 32 31 31 30 29 29 28 26 26 25 25 24 23 22 21 20 19 19 18 17 16 15
37 38 39 40 42 43 44 45 46 46 46 45 46 47 47 47 46 44 43 42 41 40 39 39 38 37 36 34 34 33 32 31 31 30 29 28 26 26 25 24 23 23 22 21 20 19 18 17 16
37 37 38 39 41 43 44 45 47 46 47 47 47 47 48 47 47 46 46 44 43 42 41 41 40 39 38 37 36 35 34 33 32 31 30 30 28 28 27 26 25 24 23 22 21 20 19 18 18
35 35 36 38 40 41 43 44 45 45 45 46 47 46 47 47 47 48 47 46 45 44 44 43 42 41 40 39 37 37 36 35 34 33 32 31 30 29 29 29 27 26 25 24 23 22 21 20 20
33 34 35 37 39 40 41 42 42 43 45 46 47 46 46 47 48 48 48 47 47 46 45 44 43 43 42 40 39 38 37 36 36 35 34 33 32 31 31 30 29 28 27 26 25 24 23 22 21
32 34 35 35 36 37 39 39 39 42 44 46 47 47 46 47 48 48 48 48 47 46 46 45 45 44 43 42 40 39 38 38 37 37 36 35 34 33 33 32 31 30 29 28 27 26 25 24 23
30 32 32 33 34 35 37 37 38 40 42 44 46 48 48 46 48 49 49 49 48 47 47 47 46 46 45 43 42 41 40 40 39 38 37 36 35 34 34 34 33 32 30 29 28 28 26 25 25
28 30 30 30 33 34 36 36 36 38 40 42 44 47 48 48 47 49 50 50 49 48 47 47 47 47 46 45 44 43 41 41 40 39 38 37 36 35 35 35 34 33 32 31 30 29 28 27 26
27 28 28 28 30 32 34 34 34 36 38 40 42 45 47 48 48 49 50 51 50 50 48 47 48 48 48 47 46 44 43 41 41 41 40 39 37 36 36 36 35 34 33 33 32 31 30 29 28
26 26 26 26 28 30 31 32 33 35 37 38 40 42 44 47 49 49 49 51 51 51 51 49 48 48 48 48 47 45 45 43 42 41 41 39 38 37 37 36 36 35 35 34 33 32 31 31 30
23 25 25 26 27 28 31 31 32 34 36 37 38 40 42 44 46 49 49 51 51 51 51 51 50 49 48 49 49 48 46 45 44 43 42 40 39 38 37 36 36 36 36 36 35 34 33 32 31
22 23 25 26 27 27 30 32 32 33 36 37 37 38 40 42 44 46 49 51 51 51 51 51 51 50 49 49 49 48 48 46 46 46 45 42 41 40 39 37 37 37 38 37 37 36 35 34 33
22 23 24 26 27 27 28 32 32 32 33 35 36 36 38 40 42 43 46 49 51 51 51 52 51 51 50 49 49 48 48 48 47 48 48 46 44 43 42 40 39 39 39 39 39 38 37 36 35
21 22 23 25 27 28 27 29 31 32 31 32 33 34 36 39 41 43 44 48 49 50 51 52 51 51 50 49 49 49 48 48 48 49 49 48 45 44 43 44 43 41 41 40 40 40 39 38 38
21 21 22 23 25 27 26 27 28 28 29 30 31 32 33 36 38 40 42 44 47 49 51 52 52 51 51 51 50 49 49 48 48 49 50 49 47 46 45 45 45 44 43 42 42 41 41 40 40
21 21 22 23 23 24 24 25 27 27 28 28 30 31 33 34 37 39 40 42 44 46 49 50 52 52 51 51 51 51 50 50 50 51 51 51 49 47 47 45 45 45 45 44 43 43 43 43 42
20 20 21 23 23 22 22 23 25 26 27 28 28 29 31 34 36 37 39 41 42 44 46 48 49 51 51 51 52 51 52 52 51 52 52 51 49 48 48 47 46 47 47 46 46 45 45 45 44
20 19 19 21 23 23 22 22 24 24 25 26 28 28 29 32 34 36 37 39 41 42 43 44 46 48 50 51 53 52 52 52 52 52 53 52 49 49 50 49 48 48 48 48 47 47 47 47 46
20 20 19 21 23 24 25 23 23 24 25 25 26 27 29 31 34 36 37 38 40 40 41 42 44 46 48 50 52 52 52 52 51 53 53 53 51 49 49 50 49 47 47 48 48 48 48 48 47
21 21 20 20 22 23 24 23 23 24 24 25 25 26 28 30 32 34 36 38 39 39 41 41 43 43 45 48 51 53 53 52 51 52 53 53 53 51 49 49 49 49 48 48 47 47 48 47 47
Wind_Direction
249 249 249 249 249 249 247 243 239 237 237 237 237 238 238 238 237 238 236 236 237 238 236 232 232 230 229 228 228 227 228 228 229 231 233 234 236 237 237 234 234 234 234 234 233 228 226 223 215
249 249 249 249 250 250 248 245 242 240 240 240 240 239 240 240 239 238 238 238 237 238 237 234 233 232 231 230 229 228 229 229 232 235 236 236 237 238 238 237 236 234 233 233 233 231 229 225 221
249 249 249 250 250 250 249 247 245 243 241 241 241 240 240 241 240 239 238 239 238 239 239 237 234 232 231 231 231 229 230 231 232 235 237 238 239 239 239 236 236 233 230 230 230 231 231 229 227
251 250 250 250 251 251 249 247 245 243 242 241 241 241 241 241 242 240 239 239 238 238 239 239 236 234 232 232 232 231 231 232 232 234 236 238 240 241 240 236 234 233 231 230 230 232 234 234 234
253 253 252 252 252 250 250 248 246 243 242 242 241 241 240 241 241 241 240 239 239 238 239 239 238 237 235 233 232 232 232 232 233 234 236 238 239 240 238 236 235 234 233 232 234 235 236 237 237
255 255 254 254 252 251 249 249 247 245 243 242 242 242 241 240 240 240 240 239 239 238 238 239 239 238 237 234 233 233 232 233 234 236 237 237 239 240 239 236 234 234 234 236 237 238 238 239 239
258 258 257 256 253 251 249 248 247 246 244 242 241 242 242 241 240 240 240 239 238 238 238 239 239 238 237 236 234 234 233 233 234 235 237 238 239 240 240 238 237 236 237 238 239 238 238 238 239
258 258 258 256 254 252 250 248 246 245 244 243 241 241 241 241 241 240 239 238 238 238 238 238 238 238 237 237 236 235 234 234 234 235 236 238 239 240 241 240 239 238 239 240 240 240 238 238 237
258 258 258 258 256 253 250 248 246 245 244 243 242 241 240 240 239 239 238 238 237 237 238 238 237 238 237 237 237 236 235 235 235 235 236 237 238 238 240 240 240 240 240 240 241 240 238 238 238
258 259 260 259 256 253 251 248 246 244 243 242 241 240 240 239 238 238 238 238 237 237 237 238 238 238 238 237 237 236 236 236 235 235 236 237 238 238 239 240 240 240 241 241 241 239 237 238 240
260 261 261 259 257 254 250 248 246 245 243 242 241 240 239 239 237 237 237 237 237 237 237 237 237 238 238 238 237 237 236 236 236 235 236 236 237 238 238 239 239 240 241 241 241 241 238 238 240
261 261 261 260 257 254 251 249 247 245 244 243 241 240 238 238 237 236 237 236 237 237 237 236 236 237 238 238 237 237 236 236 235 234 235 236 236 237 237 237 238 239 240 241 242 242 240 239 241
262 261 262 261 257 254 251 249 247 245 243 242 240 239 238 237 237 237 237 237 237 237 237 236 236 237 237 237 237 236 236 236 235 234 234 235 236 236 236 236 238 239 240 241 242 242 241 240 241
263 263 263 261 258 255 252 249 248 245 242 241 239 239 239 238 237 237 237 236 236 236 236 235 235 236 236 236 236 236 235 234 234 235 234 234 235 235 235 236 237 238 239 239 239 241 240 240 241
265 264 263 260 258 256 253 250 248 246 243 240 239 239 239 238 237 236 236 235 235 235 235 234 234 234 234 235 235 235 234 233 233 234 234 234 234 235 236 236 237 236 236 236 238 240 240 241 241
268 265 263 259 257 255 253 252 249 248 246 242 240 239 239 239 238 236 235 234 233 233 233 233 233 232 233 234 234 234 234 233 232 233 234 234 233 233 235 235 235 235 235 235 237 239 240 241 241
270 267 264 259 255 255 255 253 251 250 249 246 242 239 238 238 238 236 234 234 233 232 233 233 232 231 232 234 234 234 234 233 232 232 233 234 234 233 233 234 234 234 234 235 236 238 240 241 242
274 270 264 259 256 255 256 255 253 253 251 249 245 241 238 237 237 236 233 233 232 231 232 232 232 231 232 233 233 234 234 232 232 231 231 232 233 233 233 233 233 234 234 234 235 238 239 241 242
274 270 267 261 257 257 257 257 255 253 252 251 247 243 239 237 236 234 233 232 232 232 231 231 232 232 231 232 233 234 234 234 232 231 230 233 233 234 234 233 233 233 234 234 235 237 239 241 243
275 271 267 262 259 259 258 258 256 255 254 252 248 243 241 238 236 233 232 231 232 231 231 231 231 231 232 231 232 233 234 233 230 229 230 232 233 234 234 235 234 234 234 234 235 238 239 241 243
276 275 272 267 263 262 261 259 257 255 254 252 247 242 240 237 236 235 232 230 231 231 231 231 231 231 232 231 232 232 233 233 231 230 231 232 233 233 233 235 236 235 235 235 236 238 239 241 242
278 279 275 271 267 264 264 263 258 257 254 251 247 242 239 237 237 237 234 231 230 231 231 231 231 231 232 232 231 232 232 233 233 232 232 232 233 234 234 235 236 236 236 236 237 238 239 241 243
284 282 278 274 270 267 267 265 259 258 256 250 245 242 240 238 237 237 235 232 230 230 230 230 229 230 231 231 231 231 231 232 233 233 233 232 234 235 236 236 237 238 238 238 238 239 241 242 244
287 283 281 278 274 270 268 265 262 258 257 252 246 243 241 239 237 236 235 233 230 229 229 229 229 229 230 230 230 231 231 232 233 233 233 233 233 235 236 236 237 238 238 239 239 240 241 243 244
283 283 283 280 274 273 271 267 264 261 259 253 247 244 243 240 237 236 235 233 230 229 228 229 229 229 230 230 229 229 231 232 233 232 233 234 234 235 237 238 238 237 238 239 240 241 242 243 245
285 285 284 283 280 278 274 269 266 261 259 253 249 246 244 241 238 235 235 234 230 229 229 229 229 229 230 230 230 229 230 232 232 232 233 234 235 235 237 237 237 238 239 240 241 243 243 245 245
285 282 285 281 281 281 276 271 266 264 259 254 250 249 246 242 239 236 235 235 230 228 229 229 230 229 230 230 230 230 230 231 232 232 233 233 234 235 237 238 237 238 240 241 242 243 245 246 246
283 283 284 280 281 280 276 273 268 264 260 256 252 251 247 242 239 236 234 233 229 228 227 229 230 230 230 230 230 230 230 230 231 232 233 233 235 236 237 238 238 240 240 242 243 245 246 247 247
281 279 279 280 279 279 276 272 271 267 264 259 256 253 249 243 239 236 234 232 230 230 229 230 230 230 230 230 230 230 231 231 232 232 233 234 235 237 238 239 239 240 240 241 243 244 245 247 248
281 278 277 279 279 275 276 273 270 267 264 261 256 253 249 245 239 236 234 232 229 229 228 230 230 231 230 230 231 231 232 231 232 233 234 235 236 237 238 239 240 240 241 241 243 245 246 247 247
Height
5820 5821 5823 5824 5825 5826 5828 5831 5833 5834 5834 5835 5837 5838 5839 5842 5844 5847 5847 5847 5848 5849 5850 5852 5853 5854 5855 5856 5858 5859 5860 5861 5863 5864 5865 5866 5866 5867 5867 5868 5868 5869 5869 5869 5870 5870 5870 5871 5871
5814 5816 5818 5818 5819 5820 5824 5827 5828 5830 5830 5831 5832 5834 5835 5837 5839 5842 5843 5844 5845 5846 5848 5849 5850 5852 5853 5854 5856 5857 5858 5860 5861 5862 5863 5864 5865 5866 5866 5867 5867 5868 5868 5869 5869 5869 5870 5870 5871
5808 5809 5811 5812 5813 5815 5819 5822 5823 5824 5825 5826 5827 5829 5831 5833 5835 5837 5839 5840 5842 5843 5845 5846 5847 5849 5850 5852 5853 5855 5856 5858 5859 5860 5862 5863 5863 5864 5865 5865 5866 5866 5867 5867 5868 5869 5869 5869 5870
5801 5803 5804 5805 5807 5810 5812 5815 5816 5817 5819 5820 5822 5823 5826 5828 5830 5832 5834 5836 5838 5840 5841 5843 5844 5846 5847 5849 5850 5852 5854 5855 5857 5858 5860 5861 5862 5863 5863 5864 5864 5865 5866 5866 5867 5868 5868 5869 5869
5794 5794 5796 5797 5800 5803 5805 5807 5808 5810 5812 5814 5816 5817 5820 5822 5824 5827 5829 5831 5833 5835 5837 5839 5841 5842 5844 5846 5847 5849 5851 5852 5854 5856 5857 5858 5859 5860 5861 5862 5863 5864 5864 5865 5866 5866 5867 5867 5868
5785 5786 5787 5789 5793 5795 5797 5798 5800 5803 5805 5807 5809 5811 5813 5816 5819 5821 5824 5826 5828 5830 5832 5834 5836 5838 5840 5842 5844 5845 5847 5849 5851 5853 5854 5856 5857 5858 5859 5860 5861 5862 5862 5863 5864 5865 5866 5866 5867
5777 5777 5778 5782 5784 5786 5788 5790 5792 5794 5796 5799 5801 5803 5806 5809 5812 5815 5818 5820 5822 5824 5827 5829 5831 5833 5835 5837 5839 5841 5843 5845 5847 5849 5851 5852 5854 5855 5857 5858 5859 5860 5860 5861 5862 5863 5864 5864 5865
5767 5768 5769 5772 5774 5776 5779 5780 5782 5784 5787 5790 5793 5795 5799 5802 5805 5808 5811 5813 5816 5818 5821 5823 5826 5828 5830 5833 5835 5837 5839 5841 5843 5845 5847 5849 5850 5852 5853 5855 5856 5857 5858 5859 5860 5861 5862 5863 5863
5756 5758 5759 5762 5764 5766 5768 5769 5772 5774 5777 5780 5783 5786 5790 5793 5796 5800 5803 5806 5809 5812 5814 5817 5820 5822 5825 5827 5830 5832 5834 5836 5839 5841 5843 5845 5846 5848 5850 5851 5853 5854 5855 5856 5857 5858 5859 5860 5861
5745 5747 5751 5752 5753 5754 5756 5758 5760 5763 5765 5769 5773 5776 5780 5783 5787 5791 5795 5798 5802 5805 5808 5810 5813 5816 5819 5821 5824 5827 5829 5831 5834 5836 5838 5840 5842 5844 5846 5848 5849 5851 5852 5853 5854 5855 5857 5858 5859
5734 5737 5740 5740 5740 5742 5744 5746 5748 5751 5754 5758 5762 5766 5769 5773 5777 5781 5785 5789 5793 5797 5800 5803 5806 5809 5812 5815 5818 5821 5823 5826 5828 5831 5833 5835 5837 5839 5842 5844 5845 5847 5848 5850 5851 5852 5854 5855 5856
5724 5726 5727 5728 5727 5728 5731 5733 5736 5739 5744 5747 5750 5754 5758 5761 5766 5771 5775 5780 5784 5788 5791 5795 5798 5801 5805 5808 5811 5814 5817 5820 5822 5825 5828 5830 5832 5835 5837 5839 5841 5843 5845 5846 5848 5849 5851 5852 5853
5712 5715 5715 5716 5715 5716 5717 5720 5723 5726 5730 5733 5737 5741 5746 5750 5755 5759 5764 5769 5773 5778 5782 5785 5789 5792 5796 5800 5803 5806 5810 5813 5816 5818 5822 5824 5827 5829 5832 5834 5836 5838 5840 5842 5844 5845 5847 5848 5850
5702 5703 5703 5703 5702 5703 5704 5707 5709 5714 5716 5720 5725 5729 5734 5738 5742 5747 5752 5757 5762 5767 5771 5775 5779 5783 5787 5791 5794 5798 5802 5805 5809 5812 5815 5818 5821 5823 5826 5828 5831 5833 5836 5837 5839 5841 5843 5844 5846
5690 5691 5691 5690 5690 5691 5691 5694 5698 5701 5704 5708 5713 5717 5721 5725 5730 5735 5740 5745 5750 5755 5760 5765 5769 5773 5777 5781 5786 5789 5793 5797 5801 5805 5808 5811 5814 5817 5820 5822 5825 5828 5830 5832 5834 5836 5838 5840 5842
5679 5678 5679 5679 5679 5680 5681 5684 5687 5689 5691 5696 5700 5705 5709 5713 5718 5723 5728 5733 5739 5744 5749 5754 5759 5764 5768 5772 5777 5781 5784 5788 5793 5797 5800 5804 5807 5810 5813 5816 5819 5821 5824 5827 5829 5831 5834 5835 5837
5667 5667 5667 5669 5669 5669 5670 5673 5677 5677 5680 5683 5688 5692 5696 5701 5706 5711 5716 5721 5727 5733 5738 5744 5749 5754 5759 5763 5768 5772 5775 5779 5784 5788 5792 5796 5799 5802 5805 5808 5812 5815 5818 5821 5823 5826 5828 5830 5832
5658 5657 5658 5659 5659 5660 5660 5663 5666 5667 5668 5671 5675 5679 5684 5689 5694 5698 5704 5710 5715 5721 5727 5732 5738 5743 5748 5753 5758 5763 5766 5770 5775 5779 5784 5788 5792 5794 5797 5801 5804 5808 5811 5814 5817 5820 5822 5825 5827
5649 5649 5649 5650 5650 5650 5651 5653 5655 5656 5657 5659 5663 5667 5671 5676 5681 5686 5692 5698 5703 5710 5716 5721 5726 5732 5737 5743 5748 5753 5757 5761 5766 5770 5775 5779 5783 5786 5789 5793 5796 5800 5804 5807 5811 5814 5816 5819 5821
5640 5641 5641 5642 5641 5641 5642 5643 5645 5645 5646 5648 5651 5654 5659 5663 5667 5673 5679 5685 5691 5697 5704 5710 5715 5720 5726 5732 5738 5743 5748 5752 5756 5761 5766 5770 5774 5778 5781 5784 5788 5792 5796 5800 5803 5807 5810 5812 5815
5634 5634 5634 5634 5634 5633 5633 5634 5635 5635 5635 5637 5639 5643 5647 5651 5655 5661 5666 5673 5679 5685 5692 5698 5704 5710 5714 5720 5727 5732 5737 5741 5746 5752 5757 5761 5766 5770 5773 5776 5780 5784 5788 5792 5796 5800 5803 5806 5808
5628 5627 5626 5625 5625 5624 5624 5622 5625 5625 5625 5626 5629 5632 5636 5640 5644 5649 5654 5660 5667 5674 5680 5686 5693 5698 5704 5709 5716 5721 5727 5732 5737 5742 5747 5752 5756 5761 5765 5768 5772 5776 5781 5785 5788 5792 5795 5798 5801
5621 5620 5619 5618 5617 5616 5615 5613 5615 5615 5614 5616 5619 5622 5626 5629 5634 5638 5642 5648 5655 5662 5668 5674 5680 5687 5693 5698 5705 5711 5716 5722 5727 5732 5737 5742 5747 5752 5756 5760 5764 5768 5773 5777 5780 5784 5788 5791 5794
5614 5614 5612 5610 5609 5608 5607 5605 5605 5605 5606 5608 5611 5614 5617 5620 5624 5628 5632 5637 5643 5649 5656 5663 5669 5675 5682 5688 5694 5700 5706 5712 5717 5722 5727 5733 5738 5743 5747 5752 5756 5760 5764 5768 5772 5776 5779 5783 5786
5608 5607 5604 5602 5600 5599 5599 5597 5597 5597 5599 5600 5602 5606 5608 5611 5614 5618 5622 5626 5632 5638 5645 5651 5658 5665 5671 5677 5683 5690 5696 5701 5707 5712 5717 5722 5728 5733 5738 5743 5747 5751 5755 5759 5763 5767 5770 5774 5777
5600 5599 5597 5594 5592 5593 5592 5590 5591 5590 5591 5592 5594 5596 5599 5601 5605 5609 5612 5616 5622 5627 5634 5640 5647 5654 5660 5666 5673 5679 5685 5691 5696 5702 5707 5712 5718 5723 5728 5732 5736 5741 5745 5749 5753 5757 5761 5764 5767
5593 5592 5591 5589 5586 5585 5584 5584 5584 5583 5583 5585 5586 5587 5590 5592 5596 5599 5603 5607 5613 5618 5624 5630 5636 5643 5649 5655 5662 5668 5674 5680 5686 5691 5696 5702 5707 5713 5718 5722 5726 5731 5735 5739 5743 5747 5751 5754 5757
5588 5586 5585 5582 5580 5578 5578 5577 5577 5576 5577 5578 5579 5580 5582 5584 5587 5591 5595 5599 5604 5609 5615 5621 5627 5632 5638 5644 5650 5657 5663 5669 5675 5680 5686 5691 5697 5702 5707 5711 5716 5721 5725 5729 5733 5736 5740 5743 5747
5582 5581 5578 5576 5574 5572 5570 5573 5571 5570 5570 5571 5572 5572 5574 5576 5579 5582 5586 5590 5596 5601 5606 5611 5617 5622 5627 5633 5639 5646 5652 5657 5663 5670 5675 5680 5686 5691 5696 5700 5705 5709 5713 5718 5722 5725 5729 5732 5736
5575 5574 5572 5571 5569 5566 5565 5568 5565 5564 5563 5564 5565 5565 5566 5568 5571 5574 5578 5582 5587 5592 5598 5603 5608 5613 5618 5623 5629 5635 5641 5647 5653 5659 5664 5669 5674 5679 5684 5688 5693 5698 5702 5706 5710 5714 5717 5721 5724